Find Starlink 31592

NORAD ID: 59467 Int'l Des: 2024-068 Owner: SPXS Country: US Constellation: starlink operational
LEOCIRCULAR

リアルタイム位置

3D地球を読み込み中...

Starlink 31592について

説明を読み込み中...

次回通過

Passes for default location (London). Set your location on the main map for personalized predictions.

高度履歴

Loading altitude history...

軌道要素

1 59467U 24068N 26107.22824984 -.00000584 00000-0 -11698-4 0 9994
2 59467 43.0039 177.1373 0001650 277.7190 82.3474 15.27572165114416
Epoch: Apr 17, 2026 • Age: 14 hours

現在のステータス

高度 487.3 km
速度 7.63 km/s
衛星直下点 43.02°N, 112.37°E
打ち上げ日 Apr 10, 2024
運用期間 2 years
タイプ internet

技術仕様

分類 Payload
質量 730.00 kg
乾燥質量 700.00 kg
総質量 730.00 kg
長さ 0.30 m
直径 4.10 m
スパン 29.00 m
形状 Box + pan
製造者 SPXS
バスタイプ Starlink V2M
フェーズステータス In Orbit
所有者/国 SPXS/US

Most Searched